Milledgeville, GA

6:47 PM EST on December 15, 2019 (GMT -0500)
Baldwin County

Weather History for KMLJ - October, 2019

Change the Weather History Date:

Thursday, October 17, 2019

  Actual Average (WUND) Record (WUND)
Temperature  
Mean Temperature 58 °F -  
Max Temperature 73 °F - - (-1)
Min Temperature 44 °F - - (-1)
Degree Days  
Heating Degree Days 6    
Growing Degree Days 8 (Base 50)    
Moisture  
Dew Point 43 °F    
Average Humidity 63    
Maximum Humidity 100    
Minimum Humidity 25    
Precipitation  
Precipitation 0.00 in - - ()
Sea Level Pressure  
Sea Level Pressure 29.94 in    
Wind  
Wind Speed 6 mph (NW)    
Max Wind Speed 10 mph    
Max Gust Speed -    
Visibility 10 miles    
Events      
Averages and records for this station are not official NWS values.
T = Trace of Precipitation, MM = Missing Value Source: NWS Daily Summary

Daily Weather History Graph

Daily Weather History Graph

Search for Another Location

Airport or City:

Astronomy

Oct. 17, 2019 Rise Set
Actual Time 7:38 AM EDT 6:57 PM EDT
Civil Twilight 7:13 AM EDT 7:22 PM EDT
Nautical Twilight 6:44 AM EDT 7:51 PM EDT
Astronomical Twilight 6:16 AM EDT 8:19 PM EDT
Moon 9:38 PM EDT (10/17) 11:00 AM EDT (10/17)
Length of Visible Light 12h 08m
Length of Day
11h 18m
Waning Gibbous, 87% of the Moon is Illuminated
Oct 17
Waning Gibbous
Oct 21
Last Quarter
Oct 27
New
Nov 4
First Quarter
Nov 12
Full

Hourly Weather History & Observations

Time (EDT) Temp. Windchill Dew Point Humidity Pressure Visibility Wind Dir Wind Speed Gust Speed Precip Events Conditions
12:15 AM 59.0 °F - 46.4 °F 63% 29.93 in 10.0 mi NW 8.1 mph - N/A   Clear
12:35 AM 55.4 °F - 48.2 °F 77% 29.93 in 10.0 mi WNW 3.5 mph - N/A   Clear
12:55 AM 55.4 °F - 46.4 °F 72% 29.93 in 10.0 mi WNW 8.1 mph - N/A   Clear
1:15 AM 55.4 °F - 46.4 °F 72% 29.94 in 10.0 mi West 4.6 mph - N/A   Clear
1:35 AM 53.6 °F - 46.4 °F 77% 29.94 in 10.0 mi WNW 5.8 mph - N/A   Clear
1:55 AM 53.6 °F - 46.4 °F 77% 29.93 in 10.0 mi WNW 3.5 mph - N/A   Clear
2:15 AM 51.8 °F - 46.4 °F 82% 29.93 in 10.0 mi WNW 4.6 mph - N/A   Clear
2:35 AM 51.8 °F - 46.4 °F 82% 29.93 in 10.0 mi WNW 5.8 mph - N/A   Clear
2:55 AM 53.6 °F - 46.4 °F 77% 29.93 in 10.0 mi WNW 8.1 mph - N/A   Clear
3:15 AM 51.8 °F - 44.6 °F 76% 29.92 in 10.0 mi WNW 6.9 mph - N/A   Clear
3:35 AM 51.8 °F - 44.6 °F 76% 29.92 in 10.0 mi WNW 6.9 mph - N/A   Clear
3:55 AM 51.8 °F - 44.6 °F 76% 29.92 in 10.0 mi NW 9.2 mph - N/A   Clear
4:15 AM 51.8 °F - 44.6 °F 76% 29.92 in 10.0 mi NW 8.1 mph - N/A   Clear
4:35 AM 51.8 °F - 44.6 °F 76% 29.92 in 10.0 mi NW 6.9 mph - N/A   Clear
4:55 AM 50.0 °F - 44.6 °F 82% 29.92 in 10.0 mi NW 5.8 mph - N/A   Clear
5:15 AM 50.0 °F - 44.6 °F 82% 29.92 in 10.0 mi NW 4.6 mph - N/A   Clear
5:35 AM 50.0 °F - 44.6 °F 82% 29.93 in 10.0 mi Calm Calm - N/A   Clear
5:55 AM 48.2 °F - 44.6 °F 87% 29.94 in 10.0 mi Calm Calm - N/A   Clear
6:15 AM 46.4 °F 45.2 °F 44.6 °F 93% 29.95 in 10.0 mi WNW 3.5 mph - N/A   Clear
6:35 AM 46.4 °F - 44.6 °F 93% 29.95 in 10.0 mi Calm Calm - N/A   Clear
6:55 AM 44.6 °F 42.2 °F 44.6 °F 100% 29.95 in 10.0 mi WNW 4.6 mph - N/A   Clear
7:15 AM 44.6 °F 43.1 °F 44.6 °F 100% 29.97 in 10.0 mi West 3.5 mph - N/A   Clear
7:35 AM 44.6 °F 42.2 °F 44.6 °F 100% 29.96 in 10.0 mi NW 4.6 mph - N/A   Clear
7:55 AM 44.6 °F 43.1 °F 44.6 °F 100% 29.96 in 10.0 mi WNW 3.5 mph - N/A   Clear
8:15 AM 46.4 °F 44.3 °F 44.6 °F 93% 29.96 in 10.0 mi NW 4.6 mph - N/A   Clear
8:35 AM 48.2 °F - 44.6 °F 87% 29.96 in 10.0 mi NNW 9.2 mph - N/A   Clear
8:55 AM 50.0 °F - 44.6 °F 82% 29.97 in 10.0 mi NW 9.2 mph - N/A   Clear
9:15 AM 51.8 °F - 44.6 °F 76% 29.98 in 10.0 mi WNW 9.2 mph - N/A   Clear
9:35 AM 51.8 °F - 44.6 °F 76% 29.99 in 10.0 mi NW 5.8 mph - N/A   Clear
9:55 AM 53.6 °F - 42.8 °F 67% 30.00 in 10.0 mi NW 9.2 mph - N/A   Clear
10:15 AM 53.6 °F - 42.8 °F 67% 29.99 in 10.0 mi NNW 4.6 mph - N/A   Clear
10:35 AM 55.4 °F - 44.6 °F 67% 29.99 in 10.0 mi NNW 5.8 mph - N/A   Clear
10:55 AM 57.2 °F - 42.8 °F 59% 29.99 in 10.0 mi NW 5.8 mph - N/A   Clear
11:15 AM 59.0 °F - 42.8 °F 55% 29.99 in 10.0 mi NNW 5.8 mph - N/A   Clear
11:35 AM 59.0 °F - 42.8 °F 55% 29.98 in 10.0 mi North 5.8 mph - N/A   Clear
11:55 AM 60.8 °F - 42.8 °F 52% 29.98 in 10.0 mi North 5.8 mph - N/A   Clear
12:15 PM 62.6 °F - 42.8 °F 48% 29.97 in 10.0 mi WNW 6.9 mph - N/A   Clear
12:35 PM 64.4 °F - 42.8 °F 45% 29.97 in 10.0 mi NW 5.8 mph - N/A   Clear
12:55 PM 64.4 °F - 41.0 °F 42% 29.97 in 10.0 mi West 6.9 mph - N/A   Clear
1:15 PM 68.0 °F - 41.0 °F 37% 29.96 in 10.0 mi NW 5.8 mph - N/A   Clear
1:55 PM 69.8 °F - 39.2 °F 33% 29.94 in 10.0 mi NNW 4.6 mph - N/A   Clear
2:15 PM 69.8 °F - 41.0 °F 35% 29.92 in 10.0 mi WNW 8.1 mph - N/A   Clear
2:35 PM 71.6 °F - 39.2 °F 31% 29.91 in 10.0 mi NW 8.1 mph - N/A   Clear
2:55 PM 71.6 °F - 39.2 °F 31% 29.91 in 10.0 mi NW 5.8 mph - N/A   Clear
3:15 PM 71.6 °F - 37.4 °F 29% 29.90 in 10.0 mi WNW 8.1 mph - N/A   Clear
3:35 PM 71.6 °F - 37.4 °F 29% 29.90 in 10.0 mi WNW 6.9 mph - N/A   Clear
3:55 PM 71.6 °F - 37.4 °F 29% 29.89 in 10.0 mi NW 6.9 mph - N/A   Clear
4:15 PM 73.4 °F - 35.6 °F 25% 29.89 in 10.0 mi WNW 6.9 mph - N/A   Clear
4:35 PM 73.4 °F - 35.6 °F 25% 29.89 in 10.0 mi WNW 10.4 mph - N/A   Clear
4:55 PM 73.4 °F - 35.6 °F 25% 29.89 in 10.0 mi NW 5.8 mph - N/A   Clear
5:15 PM 71.6 °F - 35.6 °F 27% 29.89 in 10.0 mi NW 10.4 mph - N/A   Clear
5:35 PM 71.6 °F - 33.8 °F 25% 29.89 in 10.0 mi NW 9.2 mph - N/A   Clear
5:55 PM 69.8 °F - 35.6 °F 28% 29.90 in 10.0 mi NW 5.8 mph - N/A   Clear
6:15 PM 69.8 °F - 37.4 °F 31% 29.91 in 10.0 mi NW 6.9 mph - N/A   Clear
6:35 PM 68.0 °F - 37.4 °F 33% 29.91 in 10.0 mi NW 6.9 mph - N/A   Clear
6:55 PM 64.4 °F - 41.0 °F 42% 29.91 in 10.0 mi NW 4.6 mph - N/A   Clear
7:15 PM 60.8 °F - 42.8 °F 52% 29.91 in 10.0 mi WNW 3.5 mph - N/A   Clear
7:35 PM 60.8 °F - 42.8 °F 52% 29.91 in 10.0 mi NW 3.5 mph - N/A   Clear
7:55 PM 59.0 °F - 42.8 °F 55% 29.91 in 10.0 mi Calm Calm - N/A   Clear
8:15 PM 57.2 °F - 42.8 °F 59% 29.91 in 10.0 mi Calm Calm - N/A   Clear
8:35 PM 55.4 °F - 46.4 °F 72% 29.92 in 10.0 mi NW 3.5 mph - N/A   Clear
8:55 PM 55.4 °F - 46.4 °F 72% 29.93 in 10.0 mi WNW 4.6 mph - N/A   Clear
9:15 PM 55.4 °F - 44.6 °F 67% 29.93 in 10.0 mi NW 5.8 mph - N/A   Clear
9:35 PM 55.4 °F - 44.6 °F 67% 29.94 in 10.0 mi NW 4.6 mph - N/A   Clear
9:55 PM 55.4 °F - 44.6 °F 67% 29.94 in 10.0 mi Calm Calm - N/A   Clear
10:15 PM 53.6 °F - 44.6 °F 72% 29.94 in 10.0 mi Calm Calm - N/A   Clear
10:35 PM 53.6 °F - 46.4 °F 77% 29.95 in 10.0 mi WNW 4.6 mph - N/A   Clear
10:55 PM 53.6 °F - 44.6 °F 72% 29.95 in 10.0 mi NW 4.6 mph - N/A   Clear
11:15 PM 53.6 °F - 44.6 °F 72% 29.95 in 10.0 mi NW 3.5 mph - N/A   Clear
11:35 PM 53.6 °F - 44.6 °F 72% 29.95 in 10.0 mi Calm Calm - N/A   Clear
11:55 PM 51.8 °F - 44.6 °F 76% 29.95 in 10.0 mi NW 4.6 mph - N/A   Clear